Tracking 27188 objects as of 1-Apr-2023
HD Live streaming from Space Station
objects crossing your sky now

STARLINK-5590

Track STARLINK-5590 now!
10-day predictions
STARLINK-5590 is classified as:


NORAD ID: 55371
Int'l Code: 2023-013AS
Perigee: 565.2 km
Apogee: 567.1 km
Inclination: 43.0 °
Period: 95.8 minutes
Semi major axis: 6937 km
RCS: Unknown
Launch date: January 26, 2023
Source: United States (US)
Launch site: AIR FORCE EASTERN TEST RANGE (AFETR)
Your satellite tracking list
Your tracking list is empty




NASA's NSSDC Master Catalog

Two Line Element Set (TLE):
1 55371U 23013AS  23090.91667824 -.00017686  00000-0 -12968-2 0  9995
2 55371  43.0027  27.7250 0001379 267.9853 254.5618 15.02553968 10479
Source of the keplerian elements: AFSPC